Regional Weather Roundup
Issued by NWS Boston, MA

Home | Current Version | Previous Version | Text Only | Print | Product List | Glossary On
Versions: 1 2 3 4 5 6 7 8 9 10 11 12 13 14 15 16 17 18 19 20 21 22 23 24 25 26 27 28 29 30 31 32 33 34 35 36 37 38 39 40 41 42 43 44 45 46 47 48 49 50
000
ASUS41 KBOX 310810
RWRBOX

REGIONAL WEATHER ROUNDUP
NATIONAL WEATHER SERVICE TAUNTON MA
300 AM EST SAT JAN 31 2015

NOTE:  "FAIR" INDICATES FEW OR NO CLOUDS BELOW 12,000 FEET WITH NO
SIGNIFICANT WEATHER AND/OR OBSTRUCTIONS TO VISIBILITY.  THE FOLLOWING
OBSERVATION LOCATIONS DO NOT REPORT PRESENT WEATHER...PROVINCETOWN...
SMITHFIELD...BLOCK ISLAND...KEENE...AND OXFORD.

MAZALL-310900-
EASTERN MASSACHUSETTS

CITY           SKY/WX    TMP DP  RH WIND       PRES   REMARKS
BOSTON         LGT SNOW  16   4  59 NW23G35   29.73R WCI  -2
BEVERLY        LGT SNOW  14   4  64 NW20G36   29.69S WCI  -3
LAWRENCE       LGT SNOW  13   3  64 NW15G26   29.75S WCI  -3
BEDFORD        CLOUDY    13   2  61 NW23G32   29.76R WCI  -6
BLUE HILL        N/A     12   3  67 NW23G39   29.67S WCI  -7
NORWOOD        CLOUDY    16   3  56 NW23G33   29.75S WCI  -2
MARSHFIELD     FLURRIES  19   9  63 NW13G24   29.71R WCI   7
PLYMOUTH       MIX PCPN  16   5  62 NW21G32   29.70R WCI  -1
TAUNTON        FLURRIES  17   4  56 NW15G28   29.73S WCI   2
NEW BEDFORD    FLURRIES  16   4  59 NW14G25   29.72S WCI   2
$$

MAZALL-310900-
CAPE COD AND THE ISLANDS

CITY           SKY/WX    TMP DP  RH WIND       PRES   REMARKS
FALMOUTH       CLOUDY    18   7  62 NW20G30   29.68S WCI   1
HYANNIS        CLOUDY    19   9  65 NW18G25   29.65S WCI   4
CHATHAM        FLURRIES  20  14  77 NW16G31   29.66R WCI   6
PROVINCETOWN   CLOUDY    21  14  73 NW25G37   29.67R WCI   4
NANTUCKET      CLOUDY    22  13  68 NW23G32   29.67R WCI   6
MARTHAS VNYRD  CLOUDY    18   6  59 NW23G35   29.70R WCI   0
$$

MAZALL-310900-
CENTRAL AND WESTERN MASSACHUSETTS

CITY           SKY/WX    TMP DP  RH WIND       PRES   REMARKS
WORCESTER      MIX PCPN N/A N/A N/A NW31G46   29.71S
FITCHBURG      NOT AVBL
ORANGE         CLEAR      9  -1  64 NW15G23   29.87R WCI  -8
SPRINGFIELD    CLEAR     10  -3  55 NW16G25   29.90R WCI  -8
WESTFIELD      CLEAR      9  -3  58 NW16G30   29.91S WCI  -8
NORTH ADAMS    CLOUDY     5  -6  60 W8G16     30.00R WCI  -8
PITTSFIELD     CLEAR      0  -6  76 W21G30    29.93R WCI -22
$$

RIZALL-310900-
RHODE ISLAND

CITY           SKY/WX    TMP DP  RH WIND       PRES   REMARKS
PROVIDENCE     CLOUDY    16   3  56 NW22G31   29.78S WCI  -2
NEWPORT        CLOUDY    17   5  59 NW25G37   29.75R WCI  -1
BLOCK ISLAND   PTCLDY    16   3  57 NW17G32   29.79R WCI   0
SMITHFIELD     PTCLDY    12   0  57 NW17G29   29.73S WCI  -5
WESTERLY       CLEAR     13   1  59 NW12G33   29.81S WCI  -1
$$

CTZALL-310900-
CONNECTICUT

CITY           SKY/WX    TMP DP  RH WIND       PRES   REMARKS
BRADLEY INTL   CLEAR     10  -4  53 NW15      29.93R WCI  -7
HARTFORD       CLEAR     10  -3  55 NW14G23   29.96R WCI  -6
BRIDGEPORT     CLEAR     14  -1  51 NW24G39   29.94S WCI  -5
DANBURY        CLEAR     11  -4  51 NW14G21   29.99R WCI  -5
GROTON         CLEAR     12   1  61 NW24G46   29.83R WCI  -8
NEW HAVEN      CLEAR     13  -3  49 NW25G36   29.93S WCI  -7
CHESTER        FAIR      10   0  61 NW26G35   29.86R WCI -11
MERIDEN        CLEAR     11  -4  51 NW16G30   29.95R WCI  -6
WILLIMANTIC    CLEAR     12  -1  56 NW10G21   29.86S WCI  -1
OXFORD         CLEAR      9  -9  43 NW20G32   29.90R WCI -11
$$

MEZ002-015-021-024-NHZ003-005-008-011-012-014-VTZ005-008-310900-
NORTHERN NEW ENGLAND

CITY           SKY/WX    TMP DP  RH WIND       PRES   REMARKS
PORTLAND ME    LGT SNOW  18  12  77 NW17G32   29.68F VSB 1   WCI   3
BANGOR ME      LGT SNOW  21  18  88 NW21      29.67S VSB 1   WCI   5
CONCORD NH     CLOUDY    11   0  61 NW26G35   29.79F HAZE    WCI -10
MANCHESTER NH  CLOUDY    11   0  61 NW14G35   29.77S WCI  -5
NASHUA NH      LGT SNOW  13   2  61 NW25G36   29.79S WCI  -7
PORTSMOUTH NH  LGT SNOW  15   8  74 W14G25    29.69S WCI   0
JAFFREY NH     CLEAR      6  -3  66 N10G18    29.78F WCI  -9
KEENE NH       CLEAR      9  -2  61 N16G25    29.88S WCI  -9
BURLINGTON VT  CLOUDY     0 -10  63 N12       30.14R WCI -17
MT. WASHINGTON SNOW      -2  -2 100 N38G49      N/A  VSB 1/16WCI -31
$$

NYZ052-076-310900-
EASTERN NEW YORK

CITY           SKY/WX    TMP DP  RH WIND       PRES   REMARKS
ALBANY         PTCLDY     4  -8  57 W17G26    30.11R WCI -16
NEW YORK CITY  PTCLDY    18   6  59 NW16G32   30.06R WCI   3
$$

ANZALL-310900-
MARINE OBSERVATIONS

STATION/POSITION TIME  TEMP    WIND        PRES    VSBY  WAVE
                       AIR SEA DIR/SP/G                  HT/PER
                 (UTC) (F)     (DEG/KT/KT) (MB)    (MI)  (FT/S)
BOSTON BUOY      0750   18 40  310/ 29/ 35 1005.0R         7/ 5
BUZZARDS BAY     0700          310/ 38/ 42 1006.6R
NANTUCKET SOUND  NOT AVBL
MASS BAY-STELLWA 0704   20 41  310/ 27/ 35   N/A    1 1/4  5/ 4
ISLE OF SHOALS   0700   18     320/ 31/ 35 1003.6S
S OF BLOCK IS    0708      42                N/A           9/ 7
$$

......................KEY.........................
  SKY/WX - SKY CONDITION/PRESENT WEATHER
  TMP    - TEMPERATURE IN FAHRENHEIT
  DWPT   - DEWPOINT IN FAHRENHEIT
  RH     - RELATIVE HUMIDITY IN PERCENT
  WIND   - DIRECTION AND SPEED IN MPH
  PRES   - MEAN SEA LEVEL PRESSURE IN INCHES OF HG
  WCI    - WIND CHILL INDEX
  VSB    - VISIBILITY IN MILES
  HX     - HEAT INDEX
  TC     - TEMPERATURE IN CELSIUS
  VRB    - VARIABLE WIND DIRECTION
  N/A    - NOT AVAILABLE


USA.gov is the U.S. government's official web portal to all federal, state and local government web resources and services.